User: anonymous   Login
Location: Unspecified
(0.0000°N, 0.0000°E)
Time: 03:40:23
(UTC+00:00)
Language:

RAX-2 - Orbit

View from above orbital plane
View from above orbital plane
View from above satellite
View from above satellite

Ground track
Ground track

The orbit data is extracted from the following two-line orbital elements,

1 37853U 11061D   16267.94392939  .00003311  00000-0  19665-3 0  9993
2 37853 101.7019 354.7961 0179581 153.1118 207.9538 15.00181960266709
Epoch (UTC): 23 September 2016 22:39:15
Eccentricity: 0.0179581
inclination: 101.7019°
perigee height: 441 km
apogee height: 691 km
right ascension of ascending node: 354.7961°
argument of perigee: 153.1118°
revolutions per day: 15.00181960
mean anomaly at epoch: 207.9538°
orbit number at epoch: 26670

The dashed part of the orbit path shows where the satellite is in the earth's shadow,  

DLR